Time,TemperatureF,DewpointF,PressureIn,WindDirection,WindDirectionDegrees,WindSpeedMPH,WindSpeedGustMPH,Humidity,HourlyPrecipIn,Conditions,Clouds,dailyrainin,SoftwareType,DateUTC
2013-01-01 00:02:00,39.0,22.5,29.88,SSW,202,2.0,6.0,51,0.00,,,0.00,meteohub,2013-01-01 05:02:00,
2013-01-01 00:12:00,39.0,22.5,29.88,SW,225,2.0,6.0,51,0.00,,,0.00,meteohub,2013-01-01 05:12:00,
2013-01-01 00:22:00,39.0,22.8,29.88,SW,225,3.0,4.0,52,0.00,,,0.00,meteohub,2013-01-01 05:22:00,
2013-01-01 00:32:00,39.0,23.4,29.86,SSW,202,2.0,4.0,53,0.00,,,0.00,meteohub,2013-01-01 05:32:00,
2013-01-01 00:42:00,37.9,22.3,29.86,SSW,202,2.0,4.0,53,0.00,,,0.00,meteohub,2013-01-01 05:42:00,
2013-01-01 00:52:00,37.9,22.8,29.86,SW,225,2.0,3.0,54,0.00,,,0.00,meteohub,2013-01-01 05:52:00,
2013-01-01 01:02:00,37.9,22.3,29.86,SW,225,2.0,4.0,53,0.00,,,0.00,meteohub,2013-01-01 06:02:00,
2013-01-01 01:12:00,37.9,22.3,29.86,SW,225,2.0,4.0,53,0.00,,,0.00,meteohub,2013-01-01 06:12:00,
2013-01-01 01:22:00,37.9,22.3,29.86,SW,225,2.0,5.0,53,0.00,,,0.00,meteohub,2013-01-01 06:22:00,
2013-01-01 01:32:00,37.9,22.3,29.86,SW,225,0.0,5.0,53,0.00,,,0.00,meteohub,2013-01-01 06:32:00,
2013-01-01 01:42:00,37.9,22.3,29.86,SSW,202,1.0,2.0,53,0.00,,,0.00,meteohub,2013-01-01 06:42:00,
2013-01-01 01:52:00,37.9,22.3,29.86,South,180,2.0,2.0,53,0.00,,,0.00,meteohub,2013-01-01 06:52:00,
2013-01-01 02:02:00,37.9,21.9,29.86,SW,225,1.0,3.0,52,0.00,,,0.00,meteohub,2013-01-01 07:02:00,
2013-01-01 02:12:00,37.9,22.3,29.86,SSW,202,2.0,3.0,53,0.00,,,0.00,meteohub,2013-01-01 07:12:00,
2013-01-01 02:22:00,37.9,22.3,29.88,SW,225,2.0,3.0,53,0.00,,,0.00,meteohub,2013-01-01 07:22:00,
2013-01-01 02:32:00,37.9,22.3,29.88,WSW,247,2.0,5.0,53,0.00,,,0.00,meteohub,2013-01-01 07:32:00,
2013-01-01 02:42:00,37.9,22.3,29.88,WSW,247,1.0,4.0,53,0.00,,,0.00,meteohub,2013-01-01 07:42:00,
2013-01-01 02:52:00,39.0,22.8,29.86,SW,225,2.0,4.0,52,0.00,,,0.00,meteohub,2013-01-01 07:52:00,
2013-01-01 03:02:00,39.0,23.4,29.86,SW,225,3.0,4.0,53,0.00,,,0.00,meteohub,2013-01-01 08:02:00,
2013-01-01 03:12:00,37.9,22.3,29.86,WSW,247,1.0,3.0,53,0.00,,,0.00,meteohub,2013-01-01 08:12:00,
2013-01-01 03:22:00,37.9,22.8,29.86,West,270,1.0,2.0,54,0.00,,,0.00,meteohub,2013-01-01 08:22:00,
2013-01-01 03:32:00,39.0,23.7,29.86,WSW,247,1.0,4.0,54,0.00,,,0.00,meteohub,2013-01-01 08:32:00,
2013-01-01 03:42:00,37.9,22.8,29.86,SW,225,0.0,3.0,54,0.00,,,0.00,meteohub,2013-01-01 08:42:00,
2013-01-01 03:52:00,37.9,22.8,29.86,West,270,0.0,2.0,54,0.00,,,0.00,meteohub,2013-01-01 08:52:00,
2013-01-01 04:02:00,37.9,23.2,29.86,West,270,1.0,2.0,55,0.00,,,0.00,meteohub,2013-01-01 09:02:00,
2013-01-01 04:12:00,37.9,23.2,29.86,WSW,247,2.0,2.0,55,0.00,,,0.00,meteohub,2013-01-01 09:12:00,
2013-01-01 04:22:00,37.9,22.8,29.85,SW,225,2.0,3.0,54,0.00,,,0.00,meteohub,2013-01-01 09:22:00,
2013-01-01 04:32:00,39.0,23.7,29.85,WSW,247,2.0,2.0,54,0.00,,,0.00,meteohub,2013-01-01 09:32:00,
2013-01-01 04:42:00,39.0,23.7,29.85,West,270,1.0,2.0,54,0.00,,,0.00,meteohub,2013-01-01 09:42:00,
2013-01-01 04:52:00,39.0,23.7,29.85,West,270,2.0,2.0,54,0.00,,,0.00,meteohub,2013-01-01 09:52:00,
2013-01-01 05:02:00,39.0,23.7,29.85,West,270,0.0,2.0,54,0.00,,,0.00,meteohub,2013-01-01 10:02:00,
2013-01-01 05:12:00,39.0,24.3,29.85,West,270,1.0,1.0,55,0.00,,,0.00,meteohub,2013-01-01 10:12:00,
2013-01-01 05:22:00,39.0,23.7,29.86,WSW,247,1.0,2.0,54,0.00,,,0.00,meteohub,2013-01-01 10:22:00,
2013-01-01 05:32:00,39.0,23.7,29.86,WSW,247,0.0,2.0,54,0.00,,,0.00,meteohub,2013-01-01 10:32:00,
2013-01-01 05:42:00,39.0,23.7,29.86,WSW,247,0.0,2.0,54,0.00,,,0.00,meteohub,2013-01-01 10:42:00,
2013-01-01 05:52:00,39.0,24.6,29.86,WSW,247,0.0,2.0,56,0.00,,,0.00,meteohub,2013-01-01 10:52:00,
2013-01-01 06:02:00,39.0,24.6,29.85,WSW,247,0.0,2.0,56,0.00,,,0.00,meteohub,2013-01-01 11:02:00,
2013-01-01 06:12:00,39.0,24.6,29.85,WSW,247,0.0,1.0,56,0.00,,,0.00,meteohub,2013-01-01 11:12:00,
2013-01-01 06:22:00,37.9,24.1,29.86,WSW,247,1.0,1.0,57,0.00,,,0.00,meteohub,2013-01-01 11:22:00,
2013-01-01 06:32:00,37.9,25.3,29.86,WSW,247,0.0,2.0,60,0.00,,,0.00,meteohub,2013-01-01 11:32:00,
2013-01-01 06:42:00,37.9,25.3,29.86,WSW,247,1.0,2.0,60,0.00,,,0.00,meteohub,2013-01-01 11:42:00,
2013-01-01 06:52:00,37.9,25.0,29.86,WSW,247,0.0,2.0,59,0.00,,,0.00,meteohub,2013-01-01 11:52:00,
2013-01-01 07:02:00,37.9,25.0,29.86,WSW,247,0.0,2.0,59,0.00,,,0.00,meteohub,2013-01-01 12:02:00,
2013-01-01 07:12:00,37.9,26.1,29.86,WSW,247,0.0,0.0,62,0.00,,,0.00,meteohub,2013-01-01 12:12:00,
2013-01-01 07:22:00,37.9,25.7,29.85,WSW,247,0.0,0.0,61,0.00,,,0.00,meteohub,2013-01-01 12:22:00,
2013-01-01 07:32:00,37.9,26.1,29.86,WSW,247,0.0,0.0,62,0.00,,,0.00,meteohub,2013-01-01 12:32:00,
2013-01-01 07:42:00,37.9,25.3,29.86,WSW,247,0.0,0.0,60,0.00,,,0.00,meteohub,2013-01-01 12:42:00,
2013-01-01 07:52:00,37.9,25.7,29.85,WSW,247,1.0,0.0,61,0.00,,,0.00,meteohub,2013-01-01 12:52:00,
2013-01-01 08:02:00,37.9,24.4,29.86,NW,315,1.0,2.0,58,0.00,,,0.00,meteohub,2013-01-01 13:02:00,
2013-01-01 08:12:00,39.0,25.2,29.86,NW,315,1.0,2.0,57,0.00,,,0.00,meteohub,2013-01-01 13:12:00,
2013-01-01 08:22:00,39.0,25.2,29.86,NW,315,1.0,2.0,57,0.00,,,0.00,meteohub,2013-01-01 13:22:00,
2013-01-01 08:32:00,39.0,25.2,29.86,NNW,337,0.0,2.0,57,0.00,,,0.00,meteohub,2013-01-01 13:32:00,
2013-01-01 08:42:00,39.0,25.2,29.86,NNW,337,1.0,2.0,57,0.00,,,0.00,meteohub,2013-01-01 13:42:00,
2013-01-01 08:52:00,39.0,25.2,29.85,NNW,337,2.0,2.0,57,0.00,,,0.00,meteohub,2013-01-01 13:52:00,
2013-01-01 09:02:00,39.0,25.9,29.85,NNW,337,0.0,2.0,59,0.00,,,0.00,meteohub,2013-01-01 14:02:00,
2013-01-01 09:12:00,39.0,24.6,29.86,NNW,337,0.0,2.0,56,0.00,,,0.00,meteohub,2013-01-01 14:12:00,
2013-01-01 09:22:00,39.0,25.2,29.86,NNW,337,1.0,2.0,57,0.00,,,0.00,meteohub,2013-01-01 14:22:00,
2013-01-01 09:32:00,39.0,24.6,29.86,NNW,337,0.0,2.0,56,0.00,,,0.00,meteohub,2013-01-01 14:32:00,
2013-01-01 09:42:00,39.9,25.5,29.86,NNW,337,0.0,2.0,56,0.00,,,0.00,meteohub,2013-01-01 14:42:00,
2013-01-01 09:52:00,39.9,25.5,29.86,NNW,337,1.0,0.0,56,0.00,,,0.00,meteohub,2013-01-01 14:52:00,
2013-01-01 10:02:00,39.9,25.9,29.88,NNW,337,0.0,2.0,57,0.00,,,0.00,meteohub,2013-01-01 15:02:00,
2013-01-01 10:12:00,39.9,26.4,29.86,West,270,1.0,2.0,58,0.00,,,0.00,meteohub,2013-01-01 15:12:00,
2013-01-01 10:22:00,39.9,26.8,29.88,NW,315,1.0,3.0,59,0.00,,,0.00,meteohub,2013-01-01 15:22:00,
2013-01-01 10:32:00,39.9,26.8,29.86,North,0,2.0,4.0,59,0.00,,,0.00,meteohub,2013-01-01 15:32:00,
2013-01-01 10:42:00,39.9,27.1,29.88,NW,315,2.0,5.0,60,0.00,,,0.00,meteohub,2013-01-01 15:42:00,
2013-01-01 10:52:00,41.0,28.6,29.86,NW,315,2.0,5.0,61,0.00,,,0.00,meteohub,2013-01-01 15:52:00,
2013-01-01 11:02:00,41.0,28.6,29.88,NW,315,2.0,7.0,61,0.00,,,0.00,meteohub,2013-01-01 16:02:00,
2013-01-01 11:12:00,41.0,28.6,29.86,NW,315,8.0,8.0,61,0.00,,,0.00,meteohub,2013-01-01 16:12:00,
2013-01-01 11:22:00,41.0,28.9,29.86,NW,315,4.0,12.0,62,0.00,,,0.00,meteohub,2013-01-01 16:22:00,
2013-01-01 11:32:00,41.0,28.9,29.86,NW,315,4.0,7.0,62,0.00,,,0.00,meteohub,2013-01-01 16:32:00,
2013-01-01 11:42:00,41.0,28.9,29.86,NW,315,3.0,6.0,62,0.00,,,0.00,meteohub,2013-01-01 16:42:00,
2013-01-01 11:52:00,41.0,29.3,29.86,NW,315,3.0,9.0,63,0.00,,,0.00,meteohub,2013-01-01 16:52:00,
2013-01-01 12:02:00,41.0,29.3,29.85,NW,315,4.0,6.0,63,0.00,,,0.00,meteohub,2013-01-01 17:02:00,
2013-01-01 12:12:00,41.0,28.9,29.85,North,0,4.0,4.0,62,0.00,,,0.00,meteohub,2013-01-01 17:12:00,
2013-01-01 12:22:00,42.1,30.4,29.83,NNW,337,1.0,7.0,63,0.00,,,0.00,meteohub,2013-01-01 17:22:00,
2013-01-01 12:32:00,42.1,30.0,29.83,NNW,337,4.0,6.0,62,0.00,,,0.00,meteohub,2013-01-01 17:32:00,
2013-01-01 12:42:00,42.1,30.4,29.83,North,0,0.0,7.0,63,0.00,,,0.00,meteohub,2013-01-01 17:42:00,
2013-01-01 12:52:00,42.1,30.0,29.83,NNW,337,2.0,6.0,62,0.00,,,0.00,meteohub,2013-01-01 17:52:00,
2013-01-01 13:02:00,42.1,30.0,29.83,North,0,1.0,7.0,62,0.00,,,0.00,meteohub,2013-01-01 18:02:00,
2013-01-01 13:12:00,42.1,30.0,29.81,North,0,1.0,4.0,62,0.00,,,0.00,meteohub,2013-01-01 18:12:00,
2013-01-01 13:22:00,42.1,30.0,29.83,NW,315,2.0,4.0,62,0.00,,,0.00,meteohub,2013-01-01 18:22:00,
2013-01-01 13:32:00,42.1,30.0,29.81,NNW,337,2.0,4.0,62,0.00,,,0.00,meteohub,2013-01-01 18:32:00,
2013-01-01 13:42:00,42.1,30.4,29.81,North,0,1.0,4.0,63,0.00,,,0.00,meteohub,2013-01-01 18:42:00,
2013-01-01 13:52:00,42.1,30.0,29.81,NW,315,3.0,4.0,62,0.00,,,0.00,meteohub,2013-01-01 18:52:00,
2013-01-01 14:02:00,42.1,30.4,29.80,NW,315,2.0,4.0,63,0.00,,,0.00,meteohub,2013-01-01 19:02:00,
2013-01-01 14:12:00,42.1,30.4,29.81,NW,315,1.0,3.0,63,0.00,,,0.00,meteohub,2013-01-01 19:12:00,
2013-01-01 14:22:00,42.1,30.4,29.81,NW,315,3.0,5.0,63,0.00,,,0.00,meteohub,2013-01-01 19:22:00,
2013-01-01 14:32:00,42.1,30.4,29.81,NW,315,2.0,6.0,63,0.00,,,0.00,meteohub,2013-01-01 19:32:00,
2013-01-01 14:42:00,42.1,30.0,29.81,NW,315,2.0,7.0,62,0.00,,,0.00,meteohub,2013-01-01 19:42:00,
2013-01-01 14:52:00,42.1,30.0,29.83,NNW,337,1.0,7.0,62,0.00,,,0.00,meteohub,2013-01-01 19:52:00,
2013-01-01 15:02:00,42.1,30.0,29.83,North,0,4.0,5.0,62,0.00,,,0.00,meteohub,2013-01-01 20:02:00,
2013-01-01 15:12:00,42.1,30.0,29.83,NW,315,2.0,6.0,62,0.00,,,0.00,meteohub,2013-01-01 20:12:00,
2013-01-01 15:22:00,42.1,30.4,29.83,NW,315,2.0,5.0,63,0.00,,,0.00,meteohub,2013-01-01 20:22:00,
2013-01-01 15:32:00,42.1,30.0,29.83,North,0,1.0,4.0,62,0.00,,,0.00,meteohub,2013-01-01 20:32:00,
2013-01-01 15:42:00,42.1,30.4,29.83,NW,315,2.0,5.0,63,0.00,,,0.00,meteohub,2013-01-01 20:42:00,
2013-01-01 15:52:00,42.1,30.4,29.83,NW,315,1.0,5.0,63,0.00,,,0.00,meteohub,2013-01-01 20:52:00,
2013-01-01 16:02:00,42.1,30.4,29.83,NW,315,1.0,3.0,63,0.00,,,0.00,meteohub,2013-01-01 21:02:00,
2013-01-01 16:12:00,42.1,30.7,29.83,NW,315,2.0,4.0,64,0.00,,,0.00,meteohub,2013-01-01 21:12:00,
2013-01-01 16:22:00,42.1,30.7,29.83,NW,315,2.0,2.0,64,0.00,,,0.00,meteohub,2013-01-01 21:22:00,
2013-01-01 16:32:00,42.1,31.1,29.85,NW,315,1.0,2.0,65,0.00,,,0.00,meteohub,2013-01-01 21:32:00,
2013-01-01 16:42:00,42.1,31.1,29.85,NW,315,1.0,4.0,65,0.00,,,0.00,meteohub,2013-01-01 21:42:00,
2013-01-01 16:52:00,42.1,31.1,29.85,NW,315,0.0,2.0,65,0.00,,,0.00,meteohub,2013-01-01 21:52:00,
2013-01-01 17:02:00,41.0,30.2,29.85,NW,315,0.0,2.0,65,0.00,,,0.00,meteohub,2013-01-01 22:02:00,
2013-01-01 17:12:00,41.0,30.2,29.85,NW,315,1.0,2.0,65,0.00,,,0.00,meteohub,2013-01-01 22:12:00,
2013-01-01 17:22:00,41.0,30.6,29.85,NW,315,1.0,2.0,66,0.00,,,0.00,meteohub,2013-01-01 22:22:00,
2013-01-01 17:32:00,41.0,30.6,29.85,NW,315,2.0,2.0,66,0.00,,,0.00,meteohub,2013-01-01 22:32:00,
2013-01-01 17:42:00,41.0,30.6,29.85,NW,315,2.0,2.0,66,0.00,,,0.00,meteohub,2013-01-01 22:42:00,
2013-01-01 17:52:00,41.0,30.6,29.85,NW,315,2.0,3.0,66,0.00,,,0.00,meteohub,2013-01-01 22:52:00,
2013-01-01 18:02:00,41.0,30.6,29.86,NW,315,1.0,4.0,66,0.00,,,0.00,meteohub,2013-01-01 23:02:00,
2013-01-01 18:12:00,41.0,30.9,29.86,NNW,337,2.0,4.0,67,0.00,,,0.00,meteohub,2013-01-01 23:12:00,
2013-01-01 18:22:00,41.0,30.9,29.86,NW,315,2.0,5.0,67,0.00,,,0.00,meteohub,2013-01-01 23:22:00,
2013-01-01 18:32:00,41.0,30.9,29.86,NW,315,1.0,6.0,67,0.00,,,0.00,meteohub,2013-01-01 23:32:00,
2013-01-01 18:42:00,39.9,29.5,29.86,North,0,2.0,6.0,66,0.00,,,0.00,meteohub,2013-01-01 23:42:00,
2013-01-01 18:52:00,39.9,29.8,29.86,North,0,2.0,4.0,67,0.00,,,0.00,meteohub,2013-01-01 23:52:00,
2013-01-01 19:02:00,39.9,29.8,29.86,NNW,337,1.0,7.0,67,0.00,,,0.00,meteohub,2013-01-02 00:02:00,
2013-01-01 19:12:00,39.9,29.8,29.88,North,0,6.0,7.0,67,0.00,,,0.00,meteohub,2013-01-02 00:12:00,
2013-01-01 19:22:00,39.9,29.8,29.88,NNW,337,4.0,7.0,67,0.00,,,0.00,meteohub,2013-01-02 00:22:00,
2013-01-01 19:32:00,39.9,29.8,29.88,NNE,22,1.0,6.0,67,0.00,,,0.00,meteohub,2013-01-02 00:32:00,
2013-01-01 19:42:00,39.9,29.8,29.88,NW,315,4.0,6.0,67,0.00,,,0.00,meteohub,2013-01-02 00:42:00,
2013-01-01 19:52:00,39.9,30.2,29.86,NW,315,2.0,11.0,68,0.00,,,0.00,meteohub,2013-01-02 00:52:00,
2013-01-01 20:02:00,39.0,29.3,29.86,North,0,5.0,9.0,68,0.00,,,0.00,meteohub,2013-01-02 01:02:00,
2013-01-01 20:12:00,39.0,29.7,29.86,North,0,1.0,7.0,69,0.00,,,0.00,meteohub,2013-01-02 01:12:00,
2013-01-01 20:22:00,39.0,29.7,29.86,North,0,4.0,11.0,69,0.00,,,0.00,meteohub,2013-01-02 01:22:00,
2013-01-01 20:32:00,39.0,30.0,29.88,NW,315,6.0,11.0,70,0.00,,,0.00,meteohub,2013-01-02 01:32:00,
2013-01-01 20:42:00,39.0,30.0,29.88,North,0,3.0,10.0,70,0.00,,,0.00,meteohub,2013-01-02 01:42:00,
2013-01-01 20:52:00,39.0,30.0,29.86,NW,315,2.0,12.0,70,0.00,,,0.00,meteohub,2013-01-02 01:52:00,
2013-01-01 21:02:00,39.0,30.4,29.88,NW,315,4.0,10.0,71,0.00,,,0.00,meteohub,2013-01-02 02:02:00,
2013-01-01 21:12:00,39.0,30.4,29.88,North,0,5.0,10.0,71,0.00,,,0.00,meteohub,2013-01-02 02:12:00,
2013-01-01 21:22:00,39.0,30.4,29.88,NW,315,1.0,8.0,71,0.00,,,0.00,meteohub,2013-01-02 02:22:00,
2013-01-01 21:32:00,37.9,29.3,29.88,NW,315,3.0,10.0,71,0.00,,,0.00,meteohub,2013-01-02 02:32:00,
2013-01-01 21:42:00,37.9,29.7,29.88,North,0,6.0,10.0,72,0.00,,,0.00,meteohub,2013-01-02 02:42:00,
2013-01-01 21:52:00,37.9,29.7,29.88,NNW,337,2.0,7.0,72,0.00,,,0.00,meteohub,2013-01-02 02:52:00,
2013-01-01 22:02:00,37.9,29.7,29.89,NNW,337,2.0,6.0,72,0.00,,,0.00,meteohub,2013-01-02 03:02:00,
2013-01-01 22:12:00,37.9,30.0,29.88,NNW,337,1.0,7.0,73,0.00,,,0.00,meteohub,2013-01-02 03:12:00,
2013-01-01 22:22:00,37.9,30.0,29.89,NNW,337,2.0,9.0,73,0.00,,,0.00,meteohub,2013-01-02 03:22:00,
2013-01-01 22:32:00,37.9,30.0,29.88,North,0,0.0,9.0,73,0.00,,,0.00,meteohub,2013-01-02 03:32:00,
2013-01-01 22:42:00,37.9,30.0,29.89,North,0,1.0,6.0,73,0.00,,,0.00,meteohub,2013-01-02 03:42:00,
2013-01-01 22:52:00,37.9,30.4,29.88,North,0,2.0,7.0,74,0.00,,,0.00,meteohub,2013-01-02 03:52:00,
2013-01-01 23:02:00,37.9,30.4,29.88,North,0,2.0,7.0,74,0.00,,,0.00,meteohub,2013-01-02 04:02:00,
2013-01-01 23:12:00,37.0,29.1,29.88,North,0,2.0,5.0,73,0.00,,,0.00,meteohub,2013-01-02 04:12:00,
2013-01-01 23:22:00,37.0,29.1,29.88,North,0,2.0,6.0,73,0.00,,,0.00,meteohub,2013-01-02 04:22:00,
2013-01-01 23:32:00,37.0,29.1,29.89,North,0,4.0,7.0,73,0.00,,,0.00,meteohub,2013-01-02 04:32:00,
2013-01-01 23:42:00,37.0,29.1,29.88,NNW,337,2.0,6.0,73,0.00,,,0.00,meteohub,2013-01-02 04:42:00,
2013-01-01 23:52:00,37.0,28.9,29.88,NW,315,4.0,7.0,72,0.00,,,0.00,meteohub,2013-01-02 04:52:00,